Location: Unspecified
(42.3650°N, 71.1030°W)
Time: 20:16:46
(UTC+00:00)

Explorer 11/Cluster Stage 4 - Pass Details

Date: 28 June 2024
Orbit: 465 x 1215 km, 28.8° (Epoch: 13 July)

Event Time Altitude Azimuth Distance (km) Brightness Sun altitude
Rises 23:33:03 0° 241° (WSW) 3,793 10.6 7.6°
Reaches altitude 10° 23:36:03 10° 230° (SW) 2,939 9.9 7.1°
Maximum altitude 23:42:11 28° 174° (S) 2,024 8.5 6.1°
Drops below altitude 10° 23:48:43 10° 119° (ESE) 3,155 9.0 5.0°
Sets 23:52:04 0° 109° (ESE) 4,117 9.6 4.5°
